Flag for Senegal Weather past 2 weeks in Dakar, Senegal

Now
81 °F

Passing clouds.


Feels Like: 87 °F
Forecast: 80 / 86 °F
Wind: No wind

Location: Dakar / Yoff

Current Time: Aug 30, 2014 at 3:07:52 AM

Latest Report: Aug 30, 2014 at 2:30 AM


Visibility: N/A

Pressure: 29.86 "Hg

Humidity: 89%

Dew point: 77 °F

Location of DakarLocation

Historic Weather in Dakar — Graph

°F

Dakar temperature yesterday

Maximum temperature yesterday: 88 °F (at 3:30 PM)
Minimum temperature yesterday: 81 °F (at 2:30 AM)
Average temperature yesterday: 83 °F

Past Weeks' High & Low Weather Summary

 TemperatureHumidityPressure
High90 °F (Aug 22, 3:30 PM)100% (Aug 27, 7:00 PM)29.98 "Hg (Aug 27, 7:00 PM)
Low72 °F (Aug 27, 6:55 PM)63% (Aug 22, 3:30 PM)29.77 "Hg (Aug 17, 4:30 PM)
Average82 °F81%29.89 "Hg
* Reported Aug 15 2:00 AM — Aug 30 2:00 AM, Dakar, Weather by CustomWeather, © 2014

Note: Actual official high and low records may vary slightly from our data, if they occured in-between our weather recording intervals... More about our weather records

Advertising

Dakar weather history for previous 24 hours

 ConditionsComfort  
Time TempWeatherWind HumidityBarometerVisibility
2:00 AM
Aug 30
81 °FPassing clouds.No wind89%29.89 "HgN/A
1:30 AM81 °FPassing clouds.No wind89%29.89 "HgN/A
1:00 AM81 °FPassing clouds.No wind89%29.89 "HgN/A
12:30 AM81 °FPassing clouds.No wind89%29.92 "HgN/A
12:00 AM81 °FPassing clouds.No wind84%29.92 "HgN/A
11:30 PM
Aug 29
81 °FPassing clouds.1 mph84%29.92 "HgN/A
11:00 PM81 °FPassing clouds.No wind84%29.92 "HgN/A
10:30 PM82 °FPassing clouds.2 mph79%29.92 "HgN/A
10:00 PM82 °FPassing clouds.5 mph79%29.92 "HgN/A
9:30 PM82 °FPassing clouds.1 mph79%29.89 "HgN/A
9:00 PM82 °FPassing clouds.3 mph79%29.89 "HgN/A
7:00 PM84 °FPassing clouds.6 mph74%29.86 "HgN/A
6:30 PM84 °FPassing clouds.6 mph74%29.86 "HgN/A
6:00 PM86 °FPassing clouds.7 mph75%29.86 "HgN/A
5:30 PM86 °FPassing clouds.8 mph70%29.86 "HgN/A
5:00 PM86 °FPassing clouds.7 mph75%29.86 "HgN/A
4:30 PM86 °FPassing clouds.6 mph75%29.86 "HgN/A
4:00 PM86 °FPassing clouds.6 mph70%29.86 "HgN/A
3:30 PM88 °FPassing clouds.5 mph66%29.86 "HgN/A
3:00 PM86 °FPassing clouds.7 mph75%29.86 "HgN/A
2:30 PM86 °FScattered clouds.6 mph70%29.86 "HgN/A
2:00 PM86 °FScattered clouds.5 mph75%29.86 "HgN/A
1:30 PM86 °FScattered clouds.5 mph70%29.89 "HgN/A
1:00 PM84 °FScattered clouds.2 mph74%29.89 "HgN/A
12:30 PM86 °FScattered clouds.2 mph70%29.89 "HgN/A
12:00 PM86 °FScattered clouds.6 mph70%29.92 "HgN/A
11:30 AM84 °FScattered clouds.6 mph74%29.92 "HgN/A
11:00 AM84 °FScattered clouds.6 mph74%29.89 "HgN/A
10:30 AM84 °FScattered clouds.6 mph74%29.89 "HgN/A
10:00 AM84 °FScattered clouds.7 mph74%29.89 "HgN/A
9:30 AM84 °FScattered clouds.8 mph74%29.89 "HgN/A
9:00 AM82 °FScattered clouds.8 mph79%29.89 "HgN/A
8:30 AM82 °FScattered clouds.7 mph79%29.89 "HgN/A
8:00 AM82 °FScattered clouds.5 mph84%29.89 "HgN/A
7:30 AM81 °FScattered clouds.3 mph89%29.86 "HgN/A
7:00 AM81 °FScattered clouds.5 mph89%29.86 "HgN/A
6:30 AM81 °FPassing clouds.6 mph89%29.86 "HgN/A
6:00 AM81 °FPassing clouds.7 mph84%29.86 "HgN/A
5:30 AM81 °FPassing clouds.6 mph89%29.86 "HgN/A
5:00 AM81 °FPassing clouds.7 mph89%29.86 "HgN/A
4:30 AM81 °FPassing clouds.8 mph89%29.86 "HgN/A
4:00 AM81 °FPassing clouds.7 mph89%29.86 "HgN/A
3:30 AM81 °FPassing clouds.8 mph89%29.86 "HgN/A
3:00 AM81 °FPassing clouds.7 mph89%29.86 "HgN/A
Weather by CustomWeather, © 2014

See weather overviewHow to use our weather pages